QPF
0.00 0.00 0.00 0.00 0.00 0.00 0.00 0.00 0.00 0.00 0.01 0.02 0.00 0.02 0.01 0.01 0.01 0.01 0.01 0.01 0.00 0.00 0.00 0.00 0.00 0.01 0.00 0.00 0.00 0.00 0.00 0.00 0.00 0.00 0.00 0.00 0.00 0.01 0.02 0.05 0.04 0.00 0.01
0.00 0.00 0.00 0.00 0.00 0.00 0.00 0.00 0.00 0.00 0.00 0.00 0.00 0.01 0.01 0.01 0.01 0.01 0.01 0.00 0.00 0.00 0.00 0.00 0.00 0.00 0.00 0.00 0.00 0.00 0.00 0.00 0.00 0.00 0.00 0.00 0.00 0.01 0.02 0.02 0.05 0.02 0.00
0.00 0.00 0.00 0.00 0.00 0.00 0.00 0.00 0.00 0.00 0.00 0.00 0.00 0.00 0.00 0.00 0.00 0.00 0.00 0.00 0.00 0.00 0.00 0.00 0.00 0.00 0.00 0.00 0.00 0.00 0.00 0.00 0.00 0.00 0.00 0.00 0.00 0.00 0.01 0.04 0.06 0.05 0.04
0.00 0.00 0.00 0.00 0.00 0.00 0.00 0.00 0.00 0.00 0.00 0.00 0.00 0.00 0.00 0.00 0.00 0.00 0.00 0.00 0.00 0.00 0.00 0.00 0.00 0.01 0.01 0.00 0.00 0.00 0.00 0.00 0.00 0.00 0.00 0.00 0.00 0.00 0.00 0.01 0.03 0.04 0.02
0.00 0.00 0.00 0.00 0.00 0.00 0.00 0.00 0.00 0.00 0.00 0.00 0.00 0.00 0.00 0.00 0.00 0.00 0.00 0.00 0.00 0.00 0.00 0.00 0.00 0.01 0.02 0.00 0.00 0.00 0.00 0.00 0.00 0.00 0.00 0.00 0.00 0.00 0.00 0.00 0.00 0.03 0.04
0.00 0.00 0.00 0.00 0.00 0.00 0.00 0.00 0.00 0.00 0.00 0.00 0.00 0.00 0.00 0.00 0.00 0.00 0.00 0.00 0.00 0.00 0.00 0.00 0.00 0.00 0.01 0.00 0.00 0.00 0.00 0.00 0.00 0.00 0.00 0.00 0.00 0.00 0.00 0.00 0.00 0.00 0.02
0.00 0.00 0.00 0.00 0.00 0.00 0.00 0.00 0.00 0.00 0.00 0.00 0.01 0.02 0.06 0.01 0.00 0.00 0.00 0.00 0.00 0.00 0.00 0.00 0.00 0.00 0.00 0.00 0.00 0.00 0.00 0.00 0.00 0.00 0.00 0.00 0.00 0.00 0.00 0.01 0.00 0.00 0.00
0.00 0.00 0.00 0.00 0.00 0.00 0.00 0.00 0.00 0.00 0.00 0.00 0.04 0.12 0.09 0.00 0.00 0.00 0.00 0.00 0.00 0.00 0.00 0.00 0.00 0.00 0.00 0.00 0.00 0.00 0.00 0.00 0.00 0.00 0.00 0.00 0.00 0.00 0.00 0.00 0.01 0.01 0.00
0.00 0.00 0.00 0.00 0.00 0.00 0.00 0.00 0.00 0.00 0.02 0.01 0.01 0.01 0.00 0.00 0.00 0.00 0.00 0.00 0.00 0.00 0.00 0.00 0.00 0.00 0.00 0.00 0.00 0.00 0.00 0.00 0.00 0.00 0.00 0.00 0.00 0.00 0.00 0.00 0.00 0.00 0.01
0.00 0.00 0.00 0.00 0.00 0.00 0.00 0.00 0.00 0.00 0.01 0.00 0.00 0.00 0.00 0.00 0.00 0.00 0.00 0.00 0.00 0.00 0.00 0.00 0.00 0.00 0.00 0.00 0.00 0.00 0.00 0.00 0.00 0.00 0.00 0.00 0.00 0.00 0.00 0.00 0.00 0.00 0.00
0.00 0.00 0.00 0.00 0.00 0.00 0.00 0.00 0.00 0.01 0.00 0.00 0.00 0.00 0.00 0.00 0.00 0.00 0.00 0.00 0.00 0.00 0.00 0.00 0.00 0.00 0.00 0.00 0.00 0.00 0.00 0.00 0.00 0.00 0.00 0.00 0.00 0.00 0.00 0.00 0.00 0.00 0.00
0.00 0.00 0.00 0.00 0.00 0.00 0.00 0.00 0.02 0.00 0.00 0.00 0.00 0.00 0.00 0.00 0.00 0.00 0.00 0.00 0.00 0.00 0.00 0.00 0.00 0.00 0.00 0.00 0.00 0.00 0.00 0.00 0.00 0.00 0.00 0.00 0.00 0.00 0.00 0.00 0.00 0.00 0.00
0.00 0.00 0.00 0.00 0.00 0.00 0.00 0.00 0.00 0.00 0.00 0.00 0.00 0.00 0.00 0.00 0.00 0.00 0.00 0.00 0.00 0.00 0.00 0.00 0.00 0.00 0.00 0.00 0.00 0.00 0.00 0.00 0.00 0.00 0.00 0.00 0.00 0.00 0.00 0.00 0.00 0.00 0.00
0.00 0.00 0.00 0.00 0.00 0.00 0.00 0.00 0.00 0.00 0.00 0.00 0.00 0.00 0.00 0.00 0.00 0.00 0.00 0.00 0.00 0.00 0.00 0.00 0.00 0.00 0.00 0.00 0.00 0.00 0.00 0.00 0.00 0.00 0.00 0.00 0.00 0.00 0.00 0.00 0.00 0.00 0.00
0.00 0.00 0.00 0.00 0.00 0.00 0.00 0.00 0.00 0.00 0.00 0.00 0.00 0.00 0.00 0.00 0.00 0.00 0.00 0.00 0.00 0.00 0.00 0.00 0.00 0.00 0.00 0.00 0.00 0.00 0.00 0.00 0.00 0.00 0.00 0.00 0.00 0.00 0.00 0.00 0.00 0.00 0.00
0.00 0.00 0.00 0.00 0.00 0.00 0.02 0.01 0.00 0.00 0.00 0.00 0.00 0.00 0.00 0.00 0.00 0.00 0.00 0.00 0.00 0.00 0.00 0.00 0.00 0.00 0.00 0.00 0.00 0.00 0.00 0.00 0.00 0.00 0.00 0.00 0.00 0.00 0.00 0.00 0.00 0.00 0.00
0.00 0.00 0.00 0.00 0.01 0.00 0.01 0.02 0.02 0.00 0.00 0.00 0.00 0.00 0.00 0.00 0.00 0.00 0.00 0.00 0.00 0.00 0.00 0.00 0.00 0.00 0.00 0.00 0.00 0.00 0.00 0.00 0.00 0.00 0.00 0.00 0.00 0.00 0.00 0.00 0.00 0.00 0.00
0.00 0.00 0.00 0.00 0.03 0.06 0.02 0.08 0.04 0.00 0.00 0.00 0.00 0.00 0.00 0.00 0.00 0.00 0.00 0.00 0.00 0.00 0.00 0.00 0.00 0.00 0.00 0.00 0.00 0.00 0.00 0.00 0.00 0.00 0.00 0.00 0.00 0.00 0.00 0.00 0.00 0.00 0.00
0.03 0.00 0.00 0.00 0.05 0.12 0.17 0.12 0.05 0.01 0.00 0.00 0.00 0.00 0.00 0.00 0.00 0.00 0.00 0.00 0.00 0.00 0.00 0.00 0.00 0.00 0.00 0.00 0.00 0.00 0.00 0.00 0.00 0.00 0.00 0.00 0.00 0.00 0.00 0.00 0.00 0.00 0.00
0.04 0.00 0.00 0.03 0.06 0.19 0.21 0.08 0.01 0.00 0.00 0.00 0.00 0.00 0.00 0.00 0.00 0.00 0.00 0.00 0.00 0.00 0.00 0.00 0.00 0.00 0.00 0.00 0.00 0.00 0.00 0.00 0.00 0.00 0.00 0.00 0.00 0.00 0.00 0.00 0.00 0.00 0.00
0.00 0.00 0.00 0.00 0.03 0.13 0.16 0.08 0.03 0.00 0.00 0.00 0.00 0.00 0.00 0.00 0.00 0.00 0.00 0.00 0.00 0.00 0.00 0.00 0.00 0.00 0.00 0.00 0.00 0.00 0.00 0.00 0.00 0.00 0.00 0.00 0.00 0.00 0.00 0.00 0.00 0.00 0.00
0.01 0.03 0.00 0.00 0.04 0.09 0.11 0.08 0.03 0.00 0.00 0.00 0.00 0.00 0.00 0.00 0.00 0.00 0.00 0.00 0.00 0.00 0.00 0.00 0.00 0.00 0.00 0.00 0.00 0.00 0.00 0.00 0.00 0.00 0.00 0.00 0.00 0.00 0.00 0.00 0.00 0.00 0.00
0.06 0.02 0.00 0.01 0.04 0.07 0.03 0.02 0.00 0.00 0.00 0.00 0.00 0.00 0.00 0.00 0.00 0.00 0.00 0.00 0.00 0.00 0.00 0.00 0.00 0.00 0.00 0.00 0.00 0.00 0.00 0.00 0.00 0.00 0.00 0.00 0.00 0.00 0.00 0.00 0.00 0.00 0.00
0.07 0.01 0.00 0.02 0.05 0.07 0.04 0.01 0.00 0.00 0.00 0.00 0.00 0.00 0.00 0.00 0.00 0.00 0.00 0.00 0.00 0.00 0.00 0.00 0.00 0.00 0.00 0.00 0.00 0.00 0.00 0.00 0.00 0.00 0.00 0.00 0.00 0.00 0.00 0.00 0.00 0.00 0.00
0.03 0.00 0.00 0.15 0.16 0.07 0.01 0.01 0.00 0.00 0.00 0.00 0.00 0.00 0.00 0.00 0.00 0.00 0.00 0.00 0.00 0.00 0.00 0.00 0.00 0.00 0.00 0.00 0.00 0.00 0.00 0.00 0.00 0.00 0.00 0.00 0.00 0.00 0.00 0.00 0.00 0.00 0.00
0.00 0.00 0.00 0.12 0.17 0.11 0.06 0.03 0.02 0.01 0.00 0.00 0.00 0.00 0.00 0.00 0.00 0.00 0.00 0.00 0.00 0.00 0.00 0.00 0.00 0.00 0.00 0.00 0.00 0.00 0.00 0.00 0.00 0.00 0.00 0.00 0.00 0.00 0.00 0.00 0.00 0.00 0.00
MSLP
1012.39 1012.62 1012.91 1013.20 1013.50 1013.82 1014.08 1014.30 1014.46 1014.73 1014.86 1014.96 1015.09 1015.15 1015.25 1015.33 1015.46 1015.52 1015.57 1015.63 1015.63 1015.69 1015.69 1015.67 1015.56 1015.42 1015.44 1015.41 1015.37 1015.15 1014.99 1014.85 1014.86 1014.84 1014.70 1014.68 1014.55 1014.35 1014.33 1014.22 1013.98 1013.92 1013.71
1011.94 1012.65 1012.92 1013.26 1013.62 1013.96 1014.32 1014.63 1014.79 1014.94 1015.05 1015.17 1015.37 1015.53 1015.64 1015.78 1015.88 1015.94 1016.01 1016.05 1016.08 1016.08 1016.03 1016.02 1015.93 1015.81 1015.87 1015.86 1015.75 1015.55 1015.26 1015.05 1014.82 1014.90 1015.02 1015.20 1015.11 1014.88 1014.93 1014.80 1014.59 1014.35 1014.31
1011.74 1012.59 1013.01 1013.31 1013.69 1014.05 1014.52 1014.83 1015.06 1015.19 1015.28 1015.53 1015.66 1015.76 1015.90 1016.16 1016.29 1016.37 1016.40 1016.39 1016.39 1016.37 1016.35 1016.29 1016.25 1016.12 1016.23 1016.28 1016.17 1015.95 1015.65 1015.37 1015.32 1015.55 1015.52 1015.54 1015.71 1015.59 1015.35 1015.30 1015.09 1014.94 1014.74
1011.48 1012.47 1013.09 1013.48 1013.83 1014.24 1014.67 1015.02 1015.23 1015.43 1015.56 1015.74 1015.93 1016.13 1016.26 1016.45 1016.55 1016.61 1016.68 1016.68 1016.68 1016.73 1016.71 1016.65 1016.54 1016.43 1016.57 1016.63 1016.57 1016.34 1016.14 1015.92 1015.82 1016.06 1016.24 1016.19 1016.05 1016.14 1015.98 1015.73 1015.64 1015.46 1015.30
1011.22 1012.08 1013.12 1013.54 1014.01 1014.43 1014.85 1015.16 1015.41 1015.58 1015.75 1015.93 1016.11 1016.34 1016.50 1016.61 1016.72 1016.77 1016.84 1016.89 1016.99 1017.06 1017.07 1017.02 1016.90 1016.92 1017.02 1017.00 1016.92 1016.70 1016.45 1016.25 1016.28 1016.61 1016.88 1016.94 1016.72 1016.50 1016.52 1016.35 1016.15 1016.13 1015.98
1011.40 1012.36 1013.17 1013.68 1014.09 1014.54 1015.00 1015.32 1015.54 1015.73 1015.90 1016.11 1016.28 1016.45 1016.54 1016.69 1016.80 1017.02 1017.07 1017.22 1017.37 1017.39 1017.41 1017.32 1017.30 1017.39 1017.41 1017.39 1017.26 1017.10 1016.90 1016.75 1016.87 1017.21 1017.54 1017.59 1017.45 1017.16 1016.83 1016.89 1016.78 1016.54 1016.40
1011.72 1012.65 1013.27 1013.84 1014.26 1014.62 1015.00 1015.41 1015.70 1015.87 1015.99 1016.20 1016.39 1016.50 1016.66 1016.92 1017.25 1017.41 1017.49 1017.63 1017.70 1017.75 1017.78 1017.82 1017.80 1017.76 1017.88 1017.94 1017.78 1017.55 1017.30 1017.01 1017.15 1017.61 1017.98 1018.01 1017.86 1017.59 1017.45 1017.29 1017.17 1017.14 1016.92
1011.52 1012.57 1013.47 1013.99 1014.39 1014.75 1015.10 1015.46 1015.71 1016.02 1016.17 1016.40 1016.64 1016.89 1017.00 1017.27 1017.58 1017.74 1017.85 1018.01 1018.11 1018.18 1018.21 1018.32 1018.43 1018.46 1018.49 1018.43 1018.25 1017.99 1017.68 1017.52 1017.81 1018.25 1018.61 1018.56 1018.21 1018.00 1017.90 1017.78 1017.65 1017.41 1017.40
1011.25 1012.62 1013.56 1014.15 1014.50 1014.86 1015.20 1015.54 1015.82 1016.17 1016.35 1016.56 1016.85 1017.07 1017.34 1017.68 1017.88 1018.10 1018.29 1018.47 1018.53 1018.59 1018.63 1018.71 1018.75 1018.80 1018.81 1018.76 1018.62 1018.47 1018.31 1018.15 1018.55 1018.93 1019.26 1019.11 1018.64 1018.42 1018.32 1018.24 1018.07 1017.96 1017.71
1011.40 1012.44 1013.26 1014.04 1014.60 1014.97 1015.25 1015.65 1015.97 1016.33 1016.58 1016.85 1017.09 1017.38 1017.67 1017.94 1018.20 1018.44 1018.72 1018.89 1019.00 1019.08 1019.08 1019.09 1019.09 1019.06 1019.00 1019.01 1018.91 1018.87 1018.78 1018.76 1019.18 1019.51 1019.85 1019.64 1019.14 1018.78 1018.71 1018.68 1018.51 1018.32 1018.22
1011.20 1012.08 1012.76 1013.58 1014.16 1014.74 1015.22 1015.77 1016.12 1016.45 1016.82 1017.10 1017.31 1017.51 1017.67 1018.13 1018.56 1018.87 1019.06 1019.23 1019.31 1019.38 1019.39 1019.31 1019.30 1019.34 1019.22 1019.09 1019.03 1019.01 1019.12 1019.33 1019.74 1020.12 1020.16 1019.89 1019.56 1019.27 1019.10 1019.02 1018.93 1018.82 1018.70
1010.92 1011.52 1012.36 1012.96 1013.60 1014.25 1014.84 1015.83 1016.24 1016.48 1016.83 1017.02 1017.31 1017.53 1017.82 1018.16 1018.65 1019.22 1019.47 1019.45 1019.51 1019.55 1019.59 1019.49 1019.42 1019.39 1019.41 1019.44 1019.45 1019.37 1019.55 1019.76 1020.20 1020.51 1020.45 1020.10 1019.77 1019.60 1019.57 1019.41 1019.35 1019.23 1019.17
1010.69 1011.09 1011.73 1012.36 1012.90 1013.55 1014.49 1015.35 1015.86 1016.18 1016.40 1016.74 1016.97 1017.26 1017.64 1018.43 1018.94 1019.51 1019.82 1019.76 1019.80 1019.79 1019.83 1019.79 1019.74 1019.72 1019.77 1019.72 1019.82 1019.91 1020.00 1020.11 1020.62 1020.99 1020.85 1020.55 1020.20 1019.88 1019.77 1019.74 1019.59 1019.68 1019.56
1010.34 1010.87 1011.24 1011.81 1012.55 1013.06 1014.03 1014.72 1015.20 1015.71 1016.21 1016.76 1016.94 1017.26 1017.86 1018.51 1018.89 1019.31 1019.77 1019.66 1019.74 1019.73 1019.92 1020.04 1020.19 1020.12 1020.12 1020.10 1020.20 1020.33 1020.43 1020.60 1020.93 1021.31 1021.29 1021.01 1020.83 1020.52 1020.17 1019.91 1019.93 1019.98 1020.04
1010.08 1010.75 1011.03 1011.59 1012.28 1013.07 1013.85 1014.33 1015.21 1015.73 1016.35 1016.79 1017.13 1017.44 1017.94 1018.52 1018.92 1019.27 1019.56 1019.72 1019.74 1019.85 1020.07 1020.27 1020.35 1020.43 1020.52 1020.51 1020.55 1020.70 1020.80 1020.96 1021.08 1021.45 1021.65 1021.41 1021.28 1021.08 1020.86 1020.67 1020.48 1020.51 1020.55
1009.65 1010.62 1010.96 1011.55 1012.21 1013.12 1014.12 1014.37 1015.18 1015.80 1016.42 1017.03 1017.49 1017.68 1017.96 1018.44 1018.86 1019.27 1019.60 1019.82 1020.00 1020.04 1020.11 1020.27 1020.44 1020.57 1020.69 1020.66 1020.85 1020.90 1021.10 1021.08 1021.27 1021.36 1021.77 1021.79 1021.61 1021.60 1021.45 1021.28 1021.21 1021.13 1021.07
1009.21 1010.25 1010.89 1011.56 1012.33 1013.18 1014.38 1014.95 1015.28 1015.81 1016.38 1017.04 1017.46 1017.76 1018.04 1018.40 1018.82 1019.25 1019.65 1019.94 1020.12 1020.17 1020.25 1020.36 1020.49 1020.67 1020.87 1020.84 1021.15 1021.04 1021.08 1021.24 1021.37 1021.52 1021.79 1022.09 1022.07 1021.94 1021.90 1021.82 1021.73 1021.60 1021.48
1008.88 1009.95 1010.75 1011.52 1013.00 1013.73 1014.39 1015.33 1015.76 1015.91 1016.44 1016.72 1016.93 1017.35 1017.67 1018.30 1018.74 1019.17 1019.65 1020.03 1020.16 1020.37 1020.55 1020.80 1021.00 1021.12 1021.26 1021.28 1021.35 1021.20 1021.16 1021.22 1021.43 1021.62 1021.77 1022.07 1022.25 1022.36 1022.26 1022.18 1022.17 1022.09 1021.88
1008.88 1009.74 1011.08 1011.65 1013.42 1014.37 1015.02 1015.64 1016.34 1016.39 1016.65 1016.91 1017.23 1017.67 1018.00 1018.26 1018.71 1019.22 1019.69 1020.01 1020.23 1020.64 1020.83 1020.95 1021.18 1021.37 1021.59 1021.57 1021.51 1021.40 1021.27 1021.27 1021.27 1021.33 1021.91 1021.98 1022.16 1022.20 1022.31 1022.25 1022.27 1022.32 1022.20
1008.88 1009.32 1010.54 1011.96 1013.25 1014.57 1015.18 1016.06 1016.81 1016.89 1016.92 1016.89 1017.32 1017.77 1018.15 1018.52 1018.88 1019.34 1019.75 1020.01 1020.27 1020.75 1021.06 1021.10 1021.31 1021.46 1021.64 1021.75 1021.72 1021.69 1021.43 1021.14 1021.26 1021.31 1021.65 1021.71 1021.91 1022.03 1022.05 1022.08 1022.21 1022.19 1022.21
1008.42 1009.02 1009.80 1011.40 1012.88 1014.27 1015.97 1016.43 1017.62 1017.72 1017.18 1017.20 1017.18 1017.51 1018.17 1018.65 1018.93 1019.34 1019.76 1019.98 1020.23 1020.75 1020.92 1021.12 1021.30 1021.60 1021.84 1021.83 1022.17 1022.21 1021.69 1021.18 1021.23 1021.35 1021.36 1021.58 1021.71 1021.77 1021.82 1021.98 1022.03 1022.02 1021.93
1008.55 1008.49 1009.59 1010.96 1012.64 1013.77 1014.98 1015.74 1016.32 1017.14 1016.93 1017.18 1017.19 1017.47 1017.96 1018.40 1018.83 1019.27 1019.66 1020.03 1020.21 1020.69 1020.92 1021.14 1021.41 1021.97 1022.11 1021.87 1022.46 1022.69 1022.61 1021.92 1021.68 1021.43 1021.49 1021.61 1021.52 1021.43 1021.56 1021.58 1021.76 1021.83 1021.83
1008.54 1008.87 1009.75 1011.40 1012.56 1013.32 1014.26 1015.14 1015.83 1016.55 1016.86 1017.24 1017.29 1017.63 1017.85 1018.16 1018.66 1019.05 1019.43 1019.83 1020.18 1020.53 1020.93 1021.13 1021.30 1021.75 1022.31 1022.17 1022.22 1022.63 1022.91 1022.88 1022.46 1022.05 1021.92 1021.85 1021.96 1021.83 1021.60 1021.48 1021.51 1021.50 1021.62
1008.49 1009.24 1010.17 1011.48 1012.63 1013.19 1014.13 1014.78 1015.15 1015.63 1016.30 1016.80 1017.12 1017.46 1017.78 1017.99 1018.48 1018.86 1019.22 1019.61 1020.00 1020.32 1020.67 1020.81 1020.96 1021.39 1021.92 1022.43 1022.36 1022.13 1022.22 1022.64 1023.06 1023.05 1022.45 1022.08 1021.88 1021.75 1021.68 1021.52 1021.39 1021.23 1021.30
1008.34 1008.86 1010.05 1011.62 1012.48 1012.78 1013.73 1014.43 1014.67 1015.37 1016.00 1016.40 1017.03 1017.43 1017.83 1018.06 1018.40 1018.77 1019.07 1019.37 1019.74 1020.07 1020.35 1020.69 1020.97 1021.39 1021.64 1022.08 1022.36 1022.48 1022.55 1022.61 1022.71 1023.14 1022.99 1022.72 1022.44 1022.02 1021.84 1021.70 1021.49 1021.43 1021.23
1007.79 1008.88 1010.21 1011.55 1012.18 1012.82 1013.46 1014.01 1014.58 1015.25 1015.77 1016.33 1016.98 1017.45 1017.86 1018.14 1018.51 1018.57 1018.81 1019.29 1019.76 1020.25 1020.72 1020.93 1021.06 1021.41 1021.71 1021.87 1022.09 1022.28 1022.61 1022.93 1023.01 1023.13 1023.18 1022.97 1022.81 1022.55 1022.09 1021.75 1021.60 1021.33 1021.07
Thickness
5781 5780 5777 5775 5772 5768 5765 5762 5760 5757 5755 5753 5751 5751 5750 5749 5748 5747 5747 5746 5747 5746 5746 5746 5746 5747 5746 5746 5745 5746 5747 5747 5745 5745 5745 5744 5744 5744 5743 5742 5742 5742 5744
5785 5778 5775 5772 5769 5766 5762 5759 5756 5754 5752 5749 5747 5745 5745 5743 5743 5742 5741 5741 5741 5741 5742 5741 5742 5742 5741 5741 5741 5742 5744 5745 5746 5744 5742 5740 5739 5740 5738 5739 5739 5740 5739
5784 5777 5773 5771 5767 5763 5759 5755 5752 5750 5748 5745 5743 5741 5740 5738 5737 5736 5736 5736 5736 5737 5737 5738 5738 5738 5737 5736 5737 5738 5740 5742 5742 5738 5738 5738 5734 5734 5735 5735 5735 5735 5736
5784 5775 5770 5767 5763 5759 5755 5751 5749 5746 5744 5741 5739 5737 5735 5734 5733 5732 5731 5732 5732 5731 5732 5733 5734 5734 5733 5732 5732 5734 5735 5736 5736 5734 5732 5732 5731 5730 5730 5731 5731 5732 5732
5784 5776 5767 5764 5759 5755 5750 5747 5744 5742 5740 5737 5735 5732 5731 5730 5729 5729 5728 5728 5727 5726 5727 5727 5729 5728 5728 5728 5728 5729 5730 5732 5731 5729 5726 5725 5725 5726 5725 5725 5726 5726 5727
5780 5771 5764 5760 5756 5751 5746 5742 5740 5738 5736 5733 5731 5729 5727 5726 5725 5724 5723 5723 5721 5722 5721 5722 5723 5722 5722 5722 5723 5724 5725 5727 5724 5723 5720 5719 5719 5720 5722 5720 5720 5722 5723
5774 5766 5760 5755 5751 5747 5743 5738 5735 5733 5731 5729 5727 5725 5723 5721 5719 5718 5717 5716 5716 5716 5716 5716 5716 5716 5715 5715 5717 5719 5720 5722 5721 5718 5715 5714 5714 5715 5716 5716 5717 5716 5717
5772 5763 5755 5750 5746 5742 5738 5734 5731 5727 5726 5724 5721 5719 5716 5715 5713 5712 5711 5710 5710 5710 5709 5709 5708 5708 5708 5709 5710 5713 5715 5717 5714 5710 5708 5708 5709 5710 5710 5711 5711 5713 5712
5770 5759 5750 5745 5741 5738 5733 5729 5727 5723 5720 5718 5716 5714 5711 5708 5707 5706 5705 5704 5704 5704 5704 5703 5703 5703 5703 5703 5704 5705 5706 5708 5705 5703 5699 5701 5703 5704 5705 5705 5706 5706 5708
5765 5757 5749 5742 5737 5733 5730 5726 5722 5718 5715 5713 5711 5709 5706 5704 5701 5699 5697 5697 5697 5696 5697 5697 5697 5697 5698 5697 5698 5698 5698 5699 5696 5695 5692 5693 5695 5698 5699 5699 5700 5701 5702
5760 5755 5750 5742 5736 5731 5727 5722 5719 5715 5712 5709 5707 5705 5703 5700 5696 5693 5691 5690 5690 5690 5690 5691 5691 5691 5692 5693 5693 5693 5692 5691 5688 5686 5685 5686 5688 5690 5691 5692 5693 5694 5695
5752 5752 5749 5744 5737 5732 5726 5718 5714 5712 5709 5707 5705 5703 5700 5697 5692 5687 5685 5685 5684 5684 5684 5685 5685 5685 5686 5686 5686 5686 5685 5683 5681 5678 5678 5679 5681 5682 5682 5684 5684 5685 5686
5750 5751 5749 5745 5739 5734 5725 5718 5714 5711 5709 5706 5704 5701 5698 5692 5687 5683 5681 5681 5680 5679 5678 5678 5678 5679 5679 5679 5678 5678 5677 5677 5673 5669 5669 5670 5673 5675 5676 5676 5677 5675 5677
5748 5746 5748 5745 5739 5734 5725 5720 5715 5711 5707 5703 5700 5697 5693 5688 5684 5680 5677 5678 5676 5675 5673 5672 5671 5671 5670 5670 5670 5669 5668 5667 5664 5662 5661 5661 5662 5664 5667 5669 5669 5668 5667
5744 5743 5744 5743 5736 5731 5725 5720 5713 5708 5702 5698 5695 5691 5686 5682 5679 5676 5674 5672 5671 5669 5668 5666 5665 5664 5662 5662 5661 5660 5660 5658 5657 5655 5652 5652 5653 5653 5655 5657 5658 5657 5657
5745 5738 5740 5737 5734 5724 5718 5715 5708 5701 5695 5691 5687 5684 5681 5677 5674 5671 5669 5667 5665 5663 5662 5661 5659 5657 5655 5655 5653 5652 5650 5651 5648 5648 5644 5642 5643 5642 5644 5645 5645 5646 5646
5744 5738 5735 5733 5730 5720 5713 5704 5703 5695 5690 5685 5681 5677 5675 5672 5669 5666 5664 5661 5658 5657 5655 5654 5652 5650 5648 5647 5644 5643 5642 5640 5639 5638 5636 5634 5632 5633 5633 5634 5634 5635 5636
5743 5736 5734 5731 5717 5715 5707 5697 5694 5690 5685 5682 5681 5676 5673 5666 5663 5661 5659 5656 5653 5650 5648 5646 5643 5641 5639 5637 5636 5636 5635 5633 5630 5630 5627 5625 5625 5623 5622 5623 5623 5623 5625
5736 5734 5726 5724 5709 5702 5697 5689 5682 5681 5678 5676 5672 5668 5664 5661 5657 5655 5652 5648 5645 5641 5639 5637 5634 5632 5628 5627 5627 5627 5628 5627 5624 5622 5620 5617 5615 5615 5615 5613 5613 5613 5614
5730 5732 5727 5716 5708 5693 5689 5681 5674 5673 5672 5671 5668 5663 5658 5654 5651 5647 5644 5642 5638 5634 5630 5628 5626 5623 5620 5618 5618 5617 5617 5619 5617 5615 5611 5611 5609 5607 5606 5606 5605 5606 5605
5727 5721 5722 5714 5704 5690 5678 5673 5662 5656 5661 5663 5664 5660 5653 5648 5644 5641 5637 5634 5631 5626 5623 5620 5618 5614 5610 5609 5604 5601 5605 5609 5607 5608 5607 5601 5599 5600 5600 5597 5596 5597 5597
5725 5709 5715 5710 5697 5691 5679 5672 5665 5654 5659 5659 5658 5654 5648 5644 5639 5634 5630 5626 5623 5618 5615 5611 5607 5601 5598 5599 5591 5588 5585 5590 5593 5596 5594 5593 5592 5590 5587 5587 5586 5585 5585
5717 5719 5716 5703 5694 5688 5679 5672 5664 5657 5654 5651 5650 5645 5642 5639 5633 5628 5623 5619 5614 5610 5604 5600 5597 5591 5585 5585 5584 5579 5572 5570 5572 5578 5578 5576 5574 5575 5576 5575 5573 5572 5570
5710 5710 5706 5697 5690 5684 5675 5667 5663 5657 5652 5648 5643 5639 5636 5632 5626 5620 5615 5611 5606 5602 5596 5592 5589 5585 5580 5573 5572 5572 5570 5564 5555 5553 5560 5560 5558 5557 5556 5555 5554 5555 5554
5707 5707 5700 5689 5684 5680 5672 5662 5661 5653 5649 5643 5636 5631 5627 5623 5617 5612 5607 5603 5597 5592 5587 5583 5579 5575 5571 5566 5561 5557 5552 5547 5543 5535 5534 5536 5538 5538 5537 5534 5533 5532 5530
5709 5702 5691 5683 5679 5672 5664 5657 5654 5647 5642 5635 5628 5623 5617 5612 5607 5603 5599 5592 5587 5581 5575 5571 5567 5562 5556 5551 5545 5540 5533 5525 5520 5514 5509 5510 5508 5509 5510 5510 5508 5507 5506